Location: Unspecified
(43.1763°N, 79.4719°W)
Time: 02:19:59
(UTC-04:00)

CZ-3 Stage 3 - Visible Passes

Search period start: 19 March 2019 00:00
Search period end: 29 March 2019 00:00
Orbit: 469 x 34723 km, 30.5° (Epoch: 18 March)

Date Brightness Start Highest point End Pass type
(mag) Time Alt. Az. Time Alt. Az. Time Alt. Az.
19 Mar 6.3 03:02:39 15° SE 03:10:38 21° ESE 11:15:25 10° ESE visible
21 Mar 6.2 06:21:46 10° SW 06:43:23 65° SSE 15:26:39 10° S visible
22 Mar 6.3 02:52:56 16° SE 03:00:00 21° ESE 11:02:15 10° ESE visible
24 Mar 6.2 06:11:42 10° WSW 06:32:44 65° SSE 15:15:24 10° S visible
25 Mar 6.3 02:43:11 18° SE 02:49:23 21° ESE 10:48:51 10° ESE visible
27 Mar 6.1 06:01:54 12° WSW 06:22:06 65° SSE 15:04:07 10° S visible
28 Mar 6.2 02:33:24 19° SE 02:38:47 21° ESE 10:35:09 10° ESE visible
